Time,TemperatureF,DewpointF,PressureIn,WindDirection,WindDirectionDegrees,WindSpeedMPH,WindSpeedGustMPH,Humidity,HourlyPrecipIn,Conditions,Clouds,dailyrainin,SoftwareType,DateUTC
2013-03-30 00:02:00,39.0,36.0,-100.00,SSE,160,13.0,17.0,89,0.00,,,0.00,,2013-03-30 05:02:00,
2013-03-30 00:12:00,39.0,36.0,-100.00,SSE,160,14.0,17.0,89,0.00,,,0.00,,2013-03-30 05:12:00,
2013-03-30 00:22:00,39.0,36.0,-100.00,SSE,155,12.0,16.0,89,0.00,,,0.00,,2013-03-30 05:22:00,
2013-03-30 00:32:00,39.0,36.0,-100.00,SSE,165,12.0,14.0,90,0.00,,,0.00,,2013-03-30 05:32:00,
2013-03-30 00:42:00,39.0,37.0,-100.00,SSE,165,10.0,14.0,89,0.00,,,0.00,,2013-03-30 05:42:00,
2013-03-30 00:52:00,39.0,37.0,-100.00,SSE,165,12.0,14.0,89,0.00,,,0.00,,2013-03-30 05:52:00,
2013-03-30 01:02:00,40.0,37.0,-100.00,SSE,160,8.0,13.0,89,0.00,,,0.00,,2013-03-30 06:02:00,
2013-03-30 01:11:00,39.0,37.0,-100.00,SSE,155,8.0,11.0,89,0.00,,,0.00,,2013-03-30 06:11:00,
2013-03-30 01:22:00,40.0,37.0,-100.00,SSE,160,8.0,15.0,89,0.00,,,0.00,,2013-03-30 06:22:00,
2013-03-30 01:32:00,39.0,36.0,-100.00,SSE,165,12.0,14.0,90,0.01,,,0.00,,2013-03-30 06:32:00,
2013-03-30 01:42:00,39.0,36.0,-100.00,South,190,14.0,16.0,91,0.01,,,0.00,,2013-03-30 06:42:00,
2013-03-30 01:52:00,40.0,37.0,-100.00,South,185,16.0,19.0,91,0.01,,,0.00,,2013-03-30 06:52:00,
2013-03-30 02:02:00,40.0,39.0,-100.00,South,185,19.0,21.0,93,0.02,,,0.01,,2013-03-30 07:02:00,
2013-03-30 02:12:00,40.0,37.0,-100.00,SSE,160,14.0,21.0,93,0.00,,,0.01,,2013-03-30 07:12:00,
2013-03-30 02:22:00,40.0,37.0,-100.00,South,175,12.0,17.0,93,0.00,,,0.01,,2013-03-30 07:22:00,
2013-03-30 02:32:00,40.0,39.0,-100.00,South,175,15.0,18.0,93,0.00,,,0.01,,2013-03-30 07:32:00,
2013-03-30 02:42:00,40.0,39.0,-100.00,South,185,12.0,16.0,93,0.00,,,0.01,,2013-03-30 07:42:00,
2013-03-30 02:52:00,40.0,39.0,-100.00,South,190,13.0,17.0,93,0.00,,,0.01,,2013-03-30 07:52:00,
2013-03-30 03:02:00,40.0,39.0,-100.00,South,185,15.0,18.0,92,0.00,,,0.01,,2013-03-30 08:02:00,
2013-03-30 03:12:00,40.0,37.0,-100.00,South,190,14.0,17.0,90,0.00,,,0.01,,2013-03-30 08:12:00,
2013-03-30 03:21:00,40.0,37.0,-100.00,South,190,14.0,17.0,87,0.00,,,0.01,,2013-03-30 08:21:00,
2013-03-30 03:32:00,40.0,37.0,-100.00,SSW,200,10.0,19.0,86,0.00,,,0.01,,2013-03-30 08:32:00,
2013-03-30 03:42:00,40.0,37.0,-100.00,SSW,195,10.0,14.0,86,0.00,,,0.01,,2013-03-30 08:42:00,
2013-03-30 03:52:00,40.0,37.0,-100.00,SSW,200,10.0,12.0,86,0.00,,,0.01,,2013-03-30 08:52:00,
2013-03-30 04:02:00,40.0,36.0,-100.00,SSW,195,12.0,14.0,86,0.00,,,0.01,,2013-03-30 09:02:00,
2013-03-30 04:12:00,40.0,36.0,-100.00,South,190,10.0,14.0,86,0.00,,,0.01,,2013-03-30 09:12:00,
2013-03-30 04:22:00,40.0,36.0,-100.00,SSW,195,7.0,11.0,86,0.00,,,0.01,,2013-03-30 09:22:00,
2013-03-30 04:33:00,40.0,36.0,-100.00,SSW,205,6.0,9.0,87,0.00,,,0.01,,2013-03-30 09:33:00,
2013-03-30 04:42:00,39.0,36.0,-100.00,SSW,200,7.0,10.0,88,0.00,,,0.01,,2013-03-30 09:42:00,
2013-03-30 04:53:00,39.0,36.0,-100.00,SSW,200,9.0,10.0,89,0.00,,,0.01,,2013-03-30 09:53:00,
2013-03-30 05:02:00,39.0,36.0,-100.00,SSW,200,9.0,11.0,90,0.00,,,0.01,,2013-03-30 10:02:00,
2013-03-30 05:12:00,38.0,36.0,-100.00,SSW,205,7.0,10.0,90,0.00,,,0.01,,2013-03-30 10:12:00,
2013-03-30 05:23:00,38.0,36.0,-100.00,WSW,255,1.0,7.0,90,0.00,,,0.01,,2013-03-30 10:23:00,
2013-03-30 05:32:00,39.0,36.0,-100.00,SW,230,2.0,3.0,90,0.00,,,0.01,,2013-03-30 10:32:00,
2013-03-30 05:42:00,38.0,36.0,-100.00,WNW,290,2.0,2.0,91,0.00,,,0.01,,2013-03-30 10:42:00,
2013-03-30 05:52:00,38.0,36.0,-100.00,NNW,345,4.0,4.0,91,0.00,,,0.01,,2013-03-30 10:52:00,
2013-03-30 06:03:00,37.0,36.0,-100.00,North,0,5.0,6.0,92,0.00,,,0.01,,2013-03-30 11:03:00,
2013-03-30 06:12:00,38.0,36.0,-100.00,North,350,4.0,6.0,92,0.00,,,0.01,,2013-03-30 11:12:00,
2013-03-30 06:22:00,37.0,36.0,-100.00,NNW,340,4.0,6.0,92,0.00,,,0.01,,2013-03-30 11:22:00,
2013-03-30 06:32:00,37.0,36.0,-100.00,NNW,330,2.0,5.0,92,0.00,,,0.01,,2013-03-30 11:32:00,
2013-03-30 06:42:00,37.0,36.0,-100.00,NW,315,4.0,6.0,93,0.00,,,0.01,,2013-03-30 11:42:00,
2013-03-30 06:52:00,38.0,36.0,-100.00,NW,320,4.0,6.0,93,0.00,,,0.01,,2013-03-30 11:52:00,
2013-03-30 07:02:00,37.0,36.0,-100.00,NW,320,5.0,6.0,93,0.00,,,0.01,,2013-03-30 12:02:00,
2013-03-30 07:12:00,37.0,36.0,-100.00,NW,320,6.0,7.0,93,0.00,,,0.01,,2013-03-30 12:12:00,
2013-03-30 07:22:00,37.0,36.0,-100.00,NNW,330,6.0,7.0,94,0.00,,,0.01,,2013-03-30 12:22:00,
2013-03-30 07:32:00,37.0,36.0,-100.00,NW,320,4.0,7.0,94,0.00,,,0.01,,2013-03-30 12:32:00,
2013-03-30 07:42:00,37.0,36.0,-100.00,NW,315,6.0,8.0,94,0.00,,,0.01,,2013-03-30 12:42:00,
2013-03-30 07:52:00,37.0,36.0,-100.00,NW,310,7.0,8.0,94,0.00,,,0.01,,2013-03-30 12:52:00,
2013-03-30 08:02:00,37.0,36.0,-100.00,NW,310,7.0,9.0,94,0.00,,,0.01,,2013-03-30 13:02:00,
2013-03-30 08:12:00,37.0,36.0,-100.00,NW,315,7.0,9.0,94,0.00,,,0.01,,2013-03-30 13:12:00,
2013-03-30 08:22:00,37.0,36.0,-100.00,NW,315,9.0,12.0,94,0.00,,,0.01,,2013-03-30 13:22:00,
2013-03-30 08:32:00,38.0,36.0,-100.00,NW,315,9.0,12.0,94,0.00,,,0.01,,2013-03-30 13:32:00,
2013-03-30 08:42:00,37.0,36.0,-100.00,NW,310,11.0,12.0,94,0.00,,,0.01,,2013-03-30 13:42:00,
2013-03-30 08:52:00,37.0,36.0,-100.00,NW,310,12.0,15.0,95,0.00,,,0.01,,2013-03-30 13:52:00,
2013-03-30 09:02:00,37.0,36.0,-100.00,NW,320,12.0,16.0,95,0.00,,,0.01,,2013-03-30 14:02:00,
2013-03-30 09:11:00,36.0,36.0,-100.00,NNW,330,12.0,16.0,95,0.00,,,0.01,,2013-03-30 14:11:00,
2013-03-30 09:22:00,35.0,34.0,-100.00,NNW,330,9.0,15.0,95,0.00,,,0.01,,2013-03-30 14:22:00,
2013-03-30 09:32:00,35.0,34.0,-100.00,NW,320,9.0,13.0,95,0.00,,,0.01,,2013-03-30 14:32:00,
2013-03-30 09:42:00,35.0,34.0,-100.00,NW,325,10.0,13.0,95,0.00,,,0.01,,2013-03-30 14:42:00,
2013-03-30 09:52:00,35.0,34.0,-100.00,NNW,330,9.0,14.0,95,0.00,,,0.01,,2013-03-30 14:52:00,
2013-03-30 10:02:00,35.0,34.0,-100.00,NNW,330,9.0,12.0,95,0.00,,,0.01,,2013-03-30 15:02:00,
2013-03-30 10:12:00,36.0,36.0,-100.00,NNW,330,9.0,12.0,95,0.00,,,0.01,,2013-03-30 15:12:00,
2013-03-30 10:22:00,36.0,36.0,-100.00,NNW,330,8.0,13.0,95,0.00,,,0.01,,2013-03-30 15:22:00,
2013-03-30 10:33:00,37.0,36.0,-100.00,NW,325,7.0,11.0,95,0.00,,,0.01,,2013-03-30 15:33:00,
2013-03-30 10:43:00,37.0,36.0,-100.00,NNW,335,8.0,12.0,95,0.00,,,0.01,,2013-03-30 15:43:00,
2013-03-30 10:52:00,37.0,36.0,-100.00,NW,325,9.0,11.0,95,0.00,,,0.01,,2013-03-30 15:52:00,
2013-03-30 11:03:00,37.0,36.0,-100.00,NNW,335,8.0,12.0,95,0.00,,,0.01,,2013-03-30 16:03:00,
2013-03-30 11:13:00,37.0,36.0,-100.00,NW,310,8.0,12.0,95,0.00,,,0.01,,2013-03-30 16:13:00,
2013-03-30 11:23:00,37.0,36.0,-100.00,NNW,335,9.0,13.0,95,0.00,,,0.01,,2013-03-30 16:23:00,
2013-03-30 11:32:00,35.0,34.0,-100.00,NNW,330,12.0,15.0,95,0.00,,,0.01,,2013-03-30 16:32:00,
2013-03-30 11:43:00,35.0,34.0,-100.00,NW,320,12.0,14.0,95,0.00,,,0.01,,2013-03-30 16:43:00,
2013-03-30 11:52:00,35.0,34.0,-100.00,NW,325,9.0,12.0,95,0.00,,,0.01,,2013-03-30 16:52:00,
2013-03-30 12:02:00,35.0,34.0,-100.00,NW,315,11.0,13.0,95,0.00,,,0.01,,2013-03-30 17:02:00,
2013-03-30 12:13:00,35.0,34.0,-100.00,WNW,300,9.0,12.0,95,0.00,,,0.01,,2013-03-30 17:13:00,
2013-03-30 12:22:00,35.0,34.0,-100.00,NW,320,7.0,10.0,95,0.00,,,0.01,,2013-03-30 17:22:00,
2013-03-30 12:32:00,34.0,34.0,-100.00,NW,320,11.0,14.0,95,0.00,,,0.01,,2013-03-30 17:32:00,
2013-03-30 12:42:00,34.0,34.0,-100.00,NW,325,10.0,13.0,95,0.00,,,0.01,,2013-03-30 17:42:00,
2013-03-30 12:52:00,34.0,34.0,-100.00,NNW,330,9.0,12.0,95,0.00,,,0.01,,2013-03-30 17:52:00,
2013-03-30 13:02:00,35.0,34.0,-100.00,NNW,335,9.0,13.0,95,0.00,,,0.01,,2013-03-30 18:02:00,
2013-03-30 13:12:00,35.0,34.0,-100.00,NW,325,7.0,12.0,95,0.00,,,0.01,,2013-03-30 18:12:00,
2013-03-30 13:22:00,35.0,34.0,-100.00,NW,310,9.0,12.0,95,0.00,,,0.01,,2013-03-30 18:22:00,
2013-03-30 13:32:00,35.0,34.0,-100.00,NNW,330,10.0,12.0,95,0.00,,,0.01,,2013-03-30 18:32:00,
2013-03-30 13:42:00,36.0,34.0,-100.00,WNW,290,8.0,11.0,95,0.00,,,0.01,,2013-03-30 18:42:00,
2013-03-30 13:53:00,34.0,34.0,-100.00,NW,320,12.0,15.0,95,0.00,,,0.01,,2013-03-30 18:53:00,
2013-03-30 14:03:00,35.0,34.0,-100.00,NW,320,11.0,14.0,94,0.00,,,0.01,,2013-03-30 19:03:00,
2013-03-30 14:13:00,35.0,34.0,-100.00,NW,310,10.0,12.0,93,0.00,,,0.01,,2013-03-30 19:13:00,
2013-03-30 14:22:00,35.0,34.0,-100.00,NW,315,9.0,11.0,93,0.00,,,0.01,,2013-03-30 19:22:00,
2013-03-30 14:32:00,35.0,34.0,-100.00,NW,325,8.0,12.0,92,0.00,,,0.01,,2013-03-30 19:32:00,
2013-03-30 14:42:00,35.0,32.0,-100.00,NW,325,9.0,12.0,91,0.00,,,0.01,,2013-03-30 19:42:00,
2013-03-30 14:52:00,35.0,32.0,-100.00,NW,320,9.0,12.0,91,0.00,,,0.01,,2013-03-30 19:52:00,
2013-03-30 15:02:00,35.0,32.0,-100.00,NNW,330,11.0,12.0,90,0.00,,,0.01,,2013-03-30 20:02:00,
2013-03-30 15:12:00,35.0,32.0,-100.00,NW,320,10.0,12.0,89,0.00,,,0.01,,2013-03-30 20:12:00,
2013-03-30 15:22:00,36.0,34.0,-100.00,NW,305,10.0,14.0,88,0.00,,,0.01,,2013-03-30 20:22:00,
2013-03-30 15:32:00,37.0,34.0,-100.00,NW,315,9.0,12.0,85,0.00,,,0.01,,2013-03-30 20:32:00,
2013-03-30 15:42:00,37.0,32.0,-100.00,NW,325,10.0,13.0,84,0.00,,,0.01,,2013-03-30 20:42:00,
2013-03-30 15:52:00,37.0,32.0,-100.00,NW,320,11.0,12.0,83,0.00,,,0.01,,2013-03-30 20:52:00,
2013-03-30 16:02:00,37.0,32.0,-100.00,NW,315,10.0,15.0,84,0.00,,,0.01,,2013-03-30 21:02:00,
2013-03-30 16:12:00,37.0,32.0,-100.00,NW,305,11.0,15.0,84,0.00,,,0.01,,2013-03-30 21:12:00,
2013-03-30 16:22:00,37.0,32.0,-100.00,WNW,300,11.0,14.0,83,0.00,,,0.01,,2013-03-30 21:22:00,
2013-03-30 16:33:00,36.0,32.0,-100.00,NW,315,12.0,16.0,85,0.00,,,0.01,,2013-03-30 21:33:00,
2013-03-30 16:43:00,37.0,32.0,-100.00,NW,315,10.0,15.0,84,0.00,,,0.01,,2013-03-30 21:43:00,
2013-03-30 16:52:00,36.0,32.0,-100.00,NW,320,11.0,14.0,85,0.00,,,0.01,,2013-03-30 21:52:00,
2013-03-30 17:02:00,35.0,32.0,-100.00,NW,320,10.0,16.0,87,0.00,,,0.01,,2013-03-30 22:02:00,
2013-03-30 17:13:00,36.0,32.0,-100.00,NW,315,9.0,14.0,87,0.00,,,0.01,,2013-03-30 22:13:00,
2013-03-30 17:23:00,36.0,32.0,-100.00,WNW,300,8.0,12.0,86,0.00,,,0.01,,2013-03-30 22:23:00,
2013-03-30 17:32:00,36.0,32.0,-100.00,WNW,295,8.0,11.0,85,0.00,,,0.01,,2013-03-30 22:32:00,
2013-03-30 17:43:00,36.0,32.0,-100.00,WNW,290,8.0,11.0,85,0.00,,,0.01,,2013-03-30 22:43:00,
2013-03-30 17:53:00,36.0,32.0,-100.00,WNW,295,10.0,11.0,84,0.00,,,0.01,,2013-03-30 22:53:00,
2013-03-30 18:02:00,36.0,32.0,-100.00,NW,305,9.0,12.0,83,0.00,,,0.01,,2013-03-30 23:02:00,
2013-03-30 18:12:00,37.0,32.0,-100.00,NW,305,7.0,12.0,81,0.00,,,0.01,,2013-03-30 23:12:00,
2013-03-30 18:22:00,37.0,32.0,-100.00,WNW,300,10.0,12.0,81,0.00,,,0.01,,2013-03-30 23:22:00,
2013-03-30 18:32:00,37.0,32.0,-100.00,WNW,300,9.0,12.0,80,0.00,,,0.01,,2013-03-30 23:32:00,
2013-03-30 18:42:00,36.0,30.0,-100.00,WNW,295,9.0,12.0,80,0.00,,,0.01,,2013-03-30 23:42:00,
2013-03-30 18:52:00,36.0,30.0,-100.00,NW,310,11.0,15.0,80,0.00,,,0.01,,2013-03-30 23:52:00,
2013-03-30 19:02:00,36.0,30.0,-100.00,NW,310,9.0,13.0,80,0.00,,,0.01,,2013-03-31 00:02:00,
2013-03-30 19:12:00,36.0,30.0,-100.00,NW,315,12.0,16.0,80,0.00,,,0.01,,2013-03-31 00:12:00,
2013-03-30 19:22:00,35.0,30.0,-100.00,NW,320,14.0,21.0,83,0.00,,,0.01,,2013-03-31 00:22:00,
2013-03-30 19:32:00,35.0,30.0,-100.00,NW,320,12.0,17.0,84,0.00,,,0.01,,2013-03-31 00:32:00,
2013-03-30 19:42:00,34.0,30.0,-100.00,NW,315,11.0,16.0,85,0.00,,,0.01,,2013-03-31 00:42:00,
2013-03-30 19:52:00,34.0,30.0,-100.00,NW,315,10.0,16.0,86,0.00,,,0.01,,2013-03-31 00:52:00,
2013-03-30 20:02:00,34.0,30.0,-100.00,NW,315,12.0,17.0,87,0.00,,,0.01,,2013-03-31 01:02:00,
2013-03-30 20:12:00,33.0,30.0,-100.00,NW,320,10.0,15.0,88,0.00,,,0.01,,2013-03-31 01:12:00,
2013-03-30 20:22:00,33.0,30.0,-100.00,NW,315,12.0,16.0,89,0.00,,,0.01,,2013-03-31 01:22:00,
2013-03-30 20:32:00,33.0,30.0,-100.00,NW,320,12.0,15.0,90,0.00,,,0.01,,2013-03-31 01:32:00,
2013-03-30 20:42:00,33.0,30.0,-100.00,NW,315,9.0,17.0,91,0.00,,,0.01,,2013-03-31 01:42:00,
2013-03-30 20:52:00,33.0,30.0,-100.00,NW,320,12.0,17.0,92,0.00,,,0.01,,2013-03-31 01:52:00,
2013-03-30 21:02:00,33.0,30.0,-100.00,NW,315,12.0,17.0,93,0.00,,,0.01,,2013-03-31 02:02:00,
2013-03-30 21:12:00,33.0,30.0,-100.00,NW,310,11.0,15.0,93,0.00,,,0.01,,2013-03-31 02:12:00,
2013-03-30 21:22:00,32.0,30.0,-100.00,NW,305,12.0,16.0,94,0.00,,,0.01,,2013-03-31 02:22:00,
2013-03-30 21:32:00,32.0,30.0,-100.00,NW,315,11.0,17.0,94,0.00,,,0.01,,2013-03-31 02:32:00,
2013-03-30 21:42:00,32.0,30.0,-100.00,NW,310,13.0,16.0,94,0.00,,,0.01,,2013-03-31 02:42:00,
2013-03-30 21:52:00,32.0,30.0,-100.00,NW,315,12.0,18.0,95,0.00,,,0.01,,2013-03-31 02:52:00,
2013-03-30 22:02:00,32.0,30.0,-100.00,NW,315,12.0,17.0,95,0.00,,,0.01,,2013-03-31 03:02:00,
2013-03-30 22:12:00,32.0,30.0,-100.00,NW,320,11.0,16.0,95,0.00,,,0.01,,2013-03-31 03:12:00,
2013-03-30 22:22:00,32.0,30.0,-100.00,NW,305,13.0,18.0,95,0.00,,,0.01,,2013-03-31 03:22:00,
2013-03-30 22:33:00,32.0,30.0,-100.00,NW,305,9.0,20.0,95,0.00,,,0.01,,2013-03-31 03:33:00,
2013-03-30 22:43:00,32.0,30.0,-100.00,NW,310,13.0,17.0,95,0.00,,,0.01,,2013-03-31 03:43:00,
2013-03-30 22:53:00,32.0,30.0,-100.00,NW,315,11.0,18.0,95,0.00,,,0.01,,2013-03-31 03:53:00,
2013-03-30 23:02:00,31.0,-99.9,-100.00,NW,315,14.0,22.0,95,0.00,,,0.01,,2013-03-31 04:02:00,
2013-03-30 23:13:00,32.0,30.0,-100.00,NW,325,13.0,19.0,95,0.00,,,0.01,,2013-03-31 04:13:00,
2013-03-30 23:23:00,31.0,30.0,-100.00,NW,315,15.0,20.0,95,0.00,,,0.01,,2013-03-31 04:23:00,
2013-03-30 23:32:00,31.0,30.0,-100.00,NW,325,15.0,19.0,95,0.00,,,0.01,,2013-03-31 04:32:00,
2013-03-30 23:42:00,31.0,30.0,-100.00,NW,320,14.0,18.0,95,0.00,,,0.01,,2013-03-31 04:42:00,
2013-03-30 23:52:00,31.0,30.0,-100.00,WNW,300,12.0,17.0,95,0.00,,,0.01,,2013-03-31 04:52:00,